sat.trackr.live / text

‹ back to catalog

STARLINK-35085

NORAD 65419 · 2025-192R

PAYLOAD ACTIVE UNKNOWN

§ Identity

Operator
Country
US
Launch date
2025-08-31
Launch site
AFETR
Launch vehicle
Mass (kg)
RCS (m²)

Purposes: comms

External: N2YO · Heavens-Above · Gunter

§ Orbital elements

Epoch: 2026-05-25T05:28:56.543808Z

Period
94.01 min
Inclination
53.1593°
Eccentricity
0.0001379
Mean motion
15.31719814 rev/d
Perigee alt
469.7 km
Apogee alt
471.6 km
Semi-major
6,848.8 km
B*
6.3022e-4
RAAN
236.0624°
Arg perigee
89.8213°
Mean anomaly
270.2946°
Rev number
4,111

§ Raw data

STARLINK-350851 65419U 25192R   26145.22843222  .00019254  00000+0  63022-3 0  99932 65419  53.1593 236.0624 0001379  89.8213 270.2946 15.31719814 41114

JSON: /api/v1/satellites/65419 · /tle

For live sub-satellite position, see the globe view (requires WebGL).

§ Visibility from observer

Set your observer location to see the next 7 days of passes ≥ 10°. The values pass through the URL so the page stays shareable.

No JS? Fill the form by hand. The geolocation button needs JavaScript.